Terminal Aerodrome Forecast
Issued by NWS San Angelo, TX

Home | Current Version | Previous Version | Text Only | Print | Product List | Glossary On
Versions: 1 2 3 4 5 6 7 8 9 10 11 12
000
FTUS44 KSJT 281100
TAFSJT
TAF
KSJT 281120Z 2812/2912 17007KT P6SM SKC
     FM282100 06012KT P6SM SKC=

USA.gov is the U.S. government's official web portal to all federal, state and local government web resources and services.